Home > Time Zones > World Clock > Weather > Italy > Genoa > Past weeks

Flag for Italy Weather past 2 weeks in Genoa, Italy

Now
73 °F

Scattered clouds.


Feels Like: 74 °F
Forecast: 68 / 75 °F
Wind: 9 mph from Southeast

Location: Genova / Sestri

Current Time: Aug 22, 2014 at 6:38:10 PM

Latest Report: Aug 22, 2014 at 5:50 PM


Visibility: N/A

Pressure: 29.95 "Hg

Humidity: 78%

Dew point: 66 °F

Location of GenoaLocation

Historic Weather in Genoa — Graph

°F

Genoa temperature yesterday

Maximum temperature yesterday: 79 °F (at 11:20 AM)
Minimum temperature yesterday: 70 °F (at 6:50 AM)
Average temperature yesterday: 73 °F

Past Weeks' High & Low Weather Summary

 TemperatureHumidityPressure
High82 °F (Aug 11, 1:20 PM)94% (Aug 12, 6:50 AM)30.07 "Hg (Aug 12, 6:50 AM)
Low50 °F (Aug 11, 12:20 AM)34% (Aug 16, 3:20 PM)29.71 "Hg (Aug 13, 3:50 PM)
Average74 °F74%29.92 "Hg
* Reported Aug 7 5:20 PM — Aug 22 5:20 PM, Genoa, Weather by CustomWeather, © 2014

Note: Actual official high and low records may vary slightly from our data, if they occured in-between our weather recording intervals... More about our weather records

Advertising

Genoa weather history for previous 24 hours

 ConditionsComfort  
Time TempWeatherWind HumidityBarometerVisibility
5:20 PM
Aug 22
73 °FScattered clouds.7 mph78%29.95 "HgN/A
4:50 PM75 °FScattered clouds.8 mph74%29.95 "HgN/A
4:20 PM75 °FScattered clouds.9 mph74%29.95 "HgN/A
3:50 PM75 °FScattered clouds.8 mph69%29.95 "HgN/A
3:20 PM75 °FScattered clouds.8 mph69%29.98 "HgN/A
2:50 PM75 °FScattered clouds.6 mph69%29.98 "HgN/A
2:20 PM75 °FScattered clouds.8 mph69%29.98 "HgN/A
1:50 PM75 °FPassing clouds.9 mph69%29.98 "HgN/A
1:20 PM75 °FPassing clouds.10 mph69%29.98 "HgN/A
12:50 PM75 °FPassing clouds.12 mph65%29.98 "HgN/A
12:20 PM75 °FPassing clouds.10 mph65%29.98 "HgN/A
11:50 AM75 °FPassing clouds.9 mph65%29.98 "HgN/A
11:20 AM75 °FPassing clouds.9 mph65%29.98 "HgN/A
10:50 AM73 °FPassing clouds.8 mph69%29.98 "HgN/A
10:20 AM73 °FPassing clouds.9 mph69%29.98 "HgN/A
9:50 AM73 °FPassing clouds.7 mph65%29.98 "HgN/A
9:20 AM72 °FScattered clouds.6 mph69%29.98 "HgN/A
8:50 AM72 °FScattered clouds.6 mph69%29.98 "HgN/A
8:20 AM70 °FScattered clouds.5 mph73%29.98 "HgN/A
7:50 AM68 °FScattered clouds.6 mph78%29.95 "HgN/A
7:20 AM66 °FPassing clouds.6 mph83%29.95 "HgN/A
6:50 AM66 °FPassing clouds.5 mph83%29.95 "HgN/A
6:20 AM66 °FPassing clouds.5 mph83%29.95 "HgN/A
5:50 AM68 °FPassing clouds.5 mph78%29.95 "HgN/A
5:20 AM70 °FPassing clouds.5 mph73%29.95 "HgN/A
4:50 AM70 °FPassing clouds.6 mph73%29.95 "HgN/A
4:20 AM70 °FPassing clouds.6 mph73%29.95 "HgN/A
3:50 AM70 °FPassing clouds.6 mph73%29.95 "HgN/A
3:20 AM70 °FPassing clouds.6 mph73%29.95 "HgN/A
2:50 AM70 °FPassing clouds.6 mph73%29.95 "HgN/A
2:20 AM70 °FPassing clouds.7 mph73%29.95 "HgN/A
1:50 AM70 °FPassing clouds.5 mph73%29.98 "HgN/A
1:20 AM70 °FPassing clouds.5 mph73%29.98 "HgN/A
12:50 AM68 °FPassing clouds.6 mph78%29.98 "HgN/A
12:20 AM70 °FPassing clouds.5 mph73%29.98 "HgN/A
11:50 PM
Aug 21
70 °FPassing clouds.6 mph73%29.98 "HgN/A
11:20 PM70 °FPassing clouds.6 mph73%29.98 "HgN/A
10:50 PM70 °FPassing clouds.6 mph73%29.98 "HgN/A
10:20 PM72 °FPassing clouds.5 mph69%29.95 "HgN/A
9:50 PM72 °FPassing clouds.5 mph69%29.95 "HgN/A
9:20 PM72 °FPassing clouds.9 mph73%29.95 "HgN/A
8:50 PM72 °FPassing clouds.12 mph73%29.95 "HgN/A
8:20 PM72 °FPassing clouds.13 mph73%29.95 "HgN/A
7:50 PM72 °FPassing clouds.13 mph73%29.92 "HgN/A
7:20 PM73 °FPassing clouds.12 mph69%29.92 "HgN/A
6:50 PM73 °FPassing clouds.12 mph69%29.92 "HgN/A
6:20 PM75 °FPassing clouds.13 mph65%29.95 "HgN/A
Weather by CustomWeather, © 2014

See weather overviewHow to use our weather pages